sat.trackr.live / text

‹ back to catalog

LUSAT (LO-19)

NORAD 20442 · 1990-005G

PAYLOAD ACTIVE UNKNOWN

§ Identity

Operator
Country
ARGN
Launch date
1990-01-22
Launch site
FRGUI
Launch vehicle
Mass (kg)
RCS (m²)
0.15

Purposes: comms

External: N2YO · Heavens-Above · Gunter

§ Orbital elements

Epoch: 2026-09-09T22:48:20.179584Z

Period
100.41 min
Inclination
98.8829°
Eccentricity
0.0010809
Mean motion
14.34142832 rev/d
Perigee alt
770.2 km
Apogee alt
785.7 km
Semi-major
7,156.1 km
B*
3.8585e-5
RAAN
277.0814°
Arg perigee
321.8633°
Mean anomaly
38.1785°
Rev number
91,454

§ Raw data

LUSAT (LO-19)1 20442U 90005G   26252.95023356  .00000061  00000+0  38585-4 0  99952 20442  98.8829 277.0814 0010809 321.8633  38.1785 14.34142832914548

JSON: /api/v1/satellites/20442 · /tle

For live sub-satellite position, see the globe view (requires WebGL).

§ Visibility from observer

Set your observer location to see the next 7 days of passes ≥ 10°. The values pass through the URL so the page stays shareable.

No JS? Fill the form by hand. The geolocation button needs JavaScript.

§ Radio — SatNOGS DB

ModeDescriptionDownlinkUplink
BPSK BPSK 1k2 Transceiver 437.150 MHz 145.840 MHz
Carrier 435.078 MHz
CW Mode U TLM 437.125 MHz

3 transmitters · refreshed weekly from db.satnogs.org